Regional Weather Roundup
Issued by NWS

Home | Current Version | Previous Version | Graphics & Text | Print | Product List | Glossary On
Versions: 1 2 3 4 5 6 7 8 9 10 11 12 13 14 15 16 17 18 19 20 21 22 23 24 25 26 27 28 29 30 31 32 33 34 35 36 37 38 39 40 41 42 43 44 45 46 47 48 49 50
000
ASUS43 KMKX 191259
RWRWI

WISCONSIN REGIONAL WEATHER ROUNDUP
NATIONAL WEATHER SERVICE MILWAUKEE/SULLIVAN WI
700 AM CST FRI JAN 19 2018

NOTE: "FAIR" INDICATES FEW OR NO CLOUDS BELOW 12,000 FEET WITH NO
SIGNIFICANT WEATHER AND/OR OBSTRUCTIONS TO VISIBILITY.

WIZ001-002-006>008-014>016-023>028-191400-
NORTHWEST WISCONSIN

CITY           SKY/WX    TMP DP  RH WIND       PRES   REMARKS
SUPERIOR ARPT  FAIR      27  25  91 NW7       29.56R WCI  20
ASHLAND        NOT AVBL
HAYWARD        FAIR      27  23  85 S7        29.57F WCI  19
SIREN          FAIR      29  25  87 S6        29.58F WCI  23
CUMBERLAND     FAIR      23  21  93 S7        29.60F WCI  15
RICE LAKE      FAIR      24  22  93 SE6       29.64F WCI  17
CHETEK         FAIR      22  21  93 SE5       29.63F WCI  16
LADYSMITH      FAIR      25  22  89 S6        29.65F WCI  18
EAU CLAIRE     NOT AVBL
MENOMONIE      FAIR      27  22  82 S5        29.66S WCI  22
NEW RICHMOND   FAIR      28  23  81 S8        29.62F WCI  20
OSCEOLA        FAIR      28  25  86 S7        29.64F WCI  21
$$

WIZ003>005-009-010-017-018-191400-
NORTH CENTRAL WISCONSIN

CITY           SKY/WX    TMP DP  RH WIND       PRES   REMARKS
MANITOWISH WTR FAIR      24  24 100 S5        29.58F WCI  18
ARBOR VITAE    FAIR      23  21  93 S5        29.60F WCI  17
WOODRUFF       FAIR      23  21  93 S5        29.60F WCI  17
RHINELANDER    FAIR      23  21  92 SW6       29.62F WCI  16
EAGLE RIVER    FAIR      22  22 100 SW3       29.60F
LAND O LAKES   FAIR      22  21  96 CALM      29.61S
PHILLIPS       FAIR      23  22  96 S7        29.61F WCI  15
TOMAHAWK       FAIR      19  17  94 CALM      29.65S
MEDFORD        FAIR      21  18  88 SW7       29.66R WCI  13
MERRILL        FAIR      17  16  96 CALM      29.68R
$$

WIZ029-030-035-036-043>047-191400-
CENTRAL WISCONSIN

CITY           SKY/WX    TMP DP  RH WIND       PRES   REMARKS
WAUSAU         FAIR      22  19  89 S5        29.67F WCI  16
MOSINEE        MOCLDY    21  19  93 S7        29.70S WCI  13
MARSHFIELD     FAIR      23  19  85 SW6       29.67F WCI  16
STEVENS POINT  FAIR      20  19  93 SW5       29.71F WCI  14
WAUPACA        FAIR      23  18  81 S7        29.74F WCI  15
WAUTOMA        FAIR      22  18  85 SW5       29.75F WCI  16
WISC RAPIDS    FAIR      26  18  71 SW9       29.72F WCI  17
CAMP DOUGLAS   MOCLDY    27  21  80 S3        29.73F
$$

WIZ011>013-019>022-031-037>040-048>050-191400-
NORTHEAST WISCONSIN

CITY           SKY/WX    TMP DP  RH WIND       PRES   REMARKS
ANTIGO         FAIR      20  19  93 SW6       29.66S WCI  13
SHAWANO        FAIR      25  19  79 SW3       29.71S
OCONTO         FAIR      20  17  87 S3        29.73S
STURGEON BAY   FAIR      23  18  81 S9        29.73F WCI  13
GREEN BAY      FAIR      22  16  78 SW7       29.74F WCI  13
MANITOWOC      FAIR      23  18  81 S7        29.77F WCI  15
APPLETON       PTCLDY    23  16  74 SW10      29.73F WCI  12
CLINTONVILLE   FAIR      23  18  80 SW7       29.72S WCI  15
OSHKOSH        FAIR      24  18  77 S13       29.75F WCI  12
$$

WIZ032>034-041-042-053>061-191400-
SOUTHWEST WISCONSIN

CITY           SKY/WX    TMP DP  RH WIND       PRES   REMARKS
LA CROSSE      FAIR      27  21  78 S9        29.73F WCI  18
SPARTA         FAIR      27  22  80 S5        29.75S WCI  22
VIROQUA        FAIR      26  23  89 S7        29.74F WCI  18
BOSCOBEL       FAIR      22  18  85 CALM      29.80S
PRAIRIE DU CHI FAIR      28  19  70 CALM      29.80S
PLATTEVILLE    FAIR      23  21  91 S10       29.81F WCI  12
$$

WIZ056-057-062-063-064-067-068-191400-
SOUTH CENTRAL WISCONSIN

CITY           SKY/WX    TMP DP  RH WIND       PRES   REMARKS
REEDSBURG      FAIR      26  20  80 SW8       29.77S WCI  17
BARABOO/DELLS  FAIR      27  20  76 SW13      29.76F WCI  16
LONE ROCK      FAIR      24  19  81 S3        29.81F
MINERAL POINT  FAIR      25  23  93 S6        29.80S WCI  18
MADISON        MOCLDY    25  19  78 S8        29.81S WCI  16
MIDDLETON      FAIR      28  21  75 SW6       29.81S WCI  22
WATERTOWN      NOT AVBL
MONROE         FAIR      28  21  74 SW12      29.81S WCI  18
JANESVILLE     PTCLDY    25  19  80 SW6       29.85S WCI  18
$$

WIZ051-052-058>065-066-070>072-191400-
SOUTHEAST WISCONSIN

CITY           SKY/WX    TMP DP  RH WIND       PRES   REMARKS
MILWAUKEE      FAIR      28  20  71 SW8       29.83S WCI  20
WAUKESHA       NOT AVBL
MILWAUKEE/TIMM FAIR      28  19  69 SW9       29.83S WCI  20
RACINE         FAIR      29  20  69 SW13G23   29.86S WCI  19
BURLINGTON     FAIR      26  19  74 SW8       29.84F WCI  17
KENOSHA        FAIR      29  19  66 SW9       29.85F WCI  20
FOND DU LAC    FAIR      25  17  72 S12       29.77F WCI  14
SHEBOYGAN      FAIR      22  18  85 SW6       29.78S WCI  14
WEST BEND      FAIR      27  21  80 SW10      29.80S WCI  17
JUNEAU         FAIR      23  18  83 S10       29.81S WCI  12
$$

LSZ147-162-191400-
LAKE SUPERIOR

STATION/POSITION TIME  TEMP    WIND        PRES    WAVE
                       AIR SEA DIR/SP/G            HT/PER
                 (UTC) (F)     (DEG/KT/KT) (MB)    (FT/S)
DEVILS ISLAND    1200   31     190/  6/  7 1000.8F
SAXON HARBOR     1230   33     190/ 10/ 17  999.3F
$$

LMZ867-665-643>646-191400-
LAKE MICHIGAN

STATION/POSITION TIME  TEMP    WIND        PRES    WAVE
                       AIR SEA DIR/SP/G            HT/PER
                 (UTC) (F)     (DEG/KT/KT) (MB)    (FT/S)
NORTHPORT PIER   1240   26     190/ 13/ 32 1006.1F
KEWAUNEE LAKESHO 1230   25     190/  6/  8 1007.3R
SHEBOYGAN LAKESH 1200   27     200/ 11/ 13 1009.6R
PORT WASHINGTON  1240   27     220/  4/  9 1010.8S
MILWAUKEE LAKESH 1240   29     210/ 11/ 14   N/A
KENOSHA   LAKESH 1200   29     220/  6/ 11 1011.9
$$

TC  - TEMPERATURE IN CELSIUS
VSB - VISIBILITY IN STATUTE MILES
WCI - WIND CHILL INDEX
HX  - HEAT INDEX




USA.gov is the U.S. government's official web portal to all federal, state and local government web resources and services.